Date String (YYYY-MM-DD hh:mm:ss) UTC,Instrument flags,Ambient pressure (hPa),Sample flow (lpm),Bypass flow (lpm),Sample temperature (°C),Ambient temperature (°C),ASC tube jacket temperature (°C),LED temperature (°C),Box temperature (°C),Sample RH (%),Span deviation,Mass concentration (μg/m³),Mass concentration (μg/m³),Mass concentration (μg/m³)
DateTimeUTC,F1_M11,P_M11,Q1_M11,Q2_M11,T1_M11,T2_M11,T3_M11,T4_M11,T5_M11,U1_M11,ZSPAN_M11,X0_M11,X2_M11,X1_M11
2022-06-10 00:00:00,,0823.7,5.00,0.00,29.1,28.0,00.0,37.9,31.1,14.9,0000.0,0012.44,0004.77,0002.80
2022-06-10 00:01:00,,0823.7,5.01,0.00,29.2,28.1,00.0,37.9,31.2,15.1,0000.0,0012.74,0004.76,0002.81
2022-06-10 00:02:00,,0823.7,5.00,0.00,29.2,27.4,00.0,37.8,31.0,14.6,0000.0,0012.74,0004.74,0002.79
2022-06-10 00:03:00,,0823.8,5.00,0.00,29.1,27.0,00.0,37.8,30.9,13.9,0000.0,0012.64,0004.69,0002.79
2022-06-10 00:04:00,,0823.8,4.99,0.00,29.1,27.1,00.0,37.8,30.9,14.8,0000.0,0012.61,0004.71,0002.78
2022-06-10 00:05:00,,0823.8,4.99,0.00,29.0,27.2,00.0,37.8,30.9,15.7,0000.0,0012.42,0004.74,0002.78
2022-06-10 00:06:00,,0823.9,5.01,0.00,29.1,27.5,00.0,37.9,31.0,15.3,0000.0,0012.32,0004.71,0002.78
2022-06-10 00:07:00,,0823.9,5.00,0.00,29.1,27.7,00.0,37.9,31.0,15.5,0000.0,0012.64,0004.71,0002.75
2022-06-10 00:08:00,,0823.9,4.99,0.00,29.1,27.9,00.0,37.9,31.1,15.0,0000.0,0013.04,0004.70,0002.73
2022-06-10 00:09:00,,0824.0,5.00,0.00,29.1,27.7,00.0,37.8,31.1,16.4,0000.0,0012.55,0004.67,0002.71
2022-06-10 00:10:00,,0823.9,5.00,0.00,29.1,27.1,00.0,37.8,30.9,15.2,0000.0,0012.35,0004.63,0002.68
2022-06-10 00:11:00,,0823.9,5.01,0.00,29.0,27.0,00.0,37.7,30.9,15.2,0000.0,0012.14,0004.60,0002.66
2022-06-10 00:12:00,,0823.9,5.00,0.00,29.0,27.1,00.0,37.8,30.8,16.5,0000.0,0012.07,0004.64,0002.67
2022-06-10 00:13:00,,0823.9,5.00,0.00,29.0,27.3,00.0,37.8,30.8,16.5,0000.0,0012.22,0004.67,0002.69
2022-06-10 00:14:00,,0823.8,5.00,0.00,29.0,27.5,00.0,37.8,30.9,16.6,0000.0,0012.16,0004.66,0002.67
2022-06-10 00:15:00,,0823.8,5.00,0.00,29.0,27.7,00.0,37.8,31.0,15.2,0000.0,0012.14,0004.64,0002.67
2022-06-10 00:16:00,,0823.8,5.00,0.00,29.1,27.8,00.0,37.8,31.0,15.5,0000.0,0012.20,0004.59,0002.65
2022-06-10 00:17:00,,0823.9,4.99,0.00,29.0,27.2,00.0,37.7,30.9,14.2,0000.0,0012.20,0004.56,0002.66
2022-06-10 00:18:00,,0824.0,4.99,0.00,29.0,26.9,00.0,37.7,30.8,12.9,0000.0,0012.75,0004.59,0002.67
2022-06-10 00:19:00,,0824.0,5.00,0.00,28.9,27.0,00.0,37.7,30.7,14.1,0000.0,0012.17,0004.53,0002.66
2022-06-10 00:20:00,,0824.0,4.99,0.00,28.9,27.1,00.0,37.7,30.7,15.0,0000.0,0012.01,0004.49,0002.65
2022-06-10 00:21:00,,0823.9,4.99,0.00,28.9,27.3,00.0,37.7,30.8,15.1,0000.0,0011.93,0004.52,0002.66
2022-06-10 00:22:00,,0823.9,5.01,0.00,28.9,27.5,00.0,37.7,30.9,15.3,0000.0,0012.22,0004.63,0002.66
2022-06-10 00:23:00,,0824.0,5.00,0.00,29.0,27.7,00.0,37.8,30.9,14.6,0000.0,0012.09,0004.59,0002.63
2022-06-10 00:24:00,,0824.0,5.00,0.00,29.0,27.9,00.0,37.8,31.0,14.7,0000.0,0012.34,0004.60,0002.62
2022-06-10 00:25:00,,0824.0,5.00,0.00,29.1,27.7,00.0,37.7,31.0,14.9,0000.0,0012.60,0004.67,0002.63
2022-06-10 00:26:00,,0824.0,5.01,0.00,29.0,27.1,00.0,37.7,30.9,15.0,0000.0,0012.74,0004.69,0002.62
2022-06-10 00:27:00,,0824.0,5.00,0.00,29.0,27.0,00.0,37.6,30.8,15.2,0000.0,0012.84,0004.73,0002.64
2022-06-10 00:28:00,,0824.0,5.00,0.00,28.9,27.1,00.0,37.7,30.7,14.5,0000.0,0014.46,0004.79,0002.65
2022-06-10 00:29:00,,0824.0,5.00,0.00,28.9,27.3,00.0,37.7,30.7,14.5,0000.0,0014.78,0004.82,0002.66
2022-06-10 00:30:00,,0824.0,5.00,0.00,28.9,27.5,00.0,37.7,30.8,14.0,0000.0,0015.45,0004.83,0002.67
2022-06-10 00:31:00,,0824.0,5.00,0.00,29.0,27.7,00.0,37.7,30.9,14.6,0000.0,0015.87,0004.93,0002.69
2022-06-10 00:32:00,,0824.0,5.00,0.00,29.0,27.7,00.0,37.7,31.0,15.4,0000.0,0016.07,0004.91,0002.68
2022-06-10 00:33:00,,0824.1,5.00,0.00,29.0,27.2,00.0,37.7,30.8,16.2,0000.0,0016.36,0004.85,0002.68
2022-06-10 00:34:00,,0824.1,5.00,0.00,28.9,26.8,00.0,37.6,30.7,16.4,0000.0,0016.53,0004.83,0002.69
2022-06-10 00:35:00,,0824.1,4.99,0.00,28.9,26.8,00.0,37.6,30.7,15.8,0000.0,0016.75,0004.80,0002.70
2022-06-10 00:36:00,,0824.1,4.99,0.00,28.8,27.0,00.0,37.6,30.7,15.1,0000.0,0016.76,0004.79,0002.72
2022-06-10 00:37:00,,0824.1,5.00,0.00,28.8,27.2,00.0,37.6,30.7,14.9,0000.0,0016.57,0004.76,0002.74
2022-06-10 00:38:00,,0824.2,5.00,0.00,28.9,27.5,00.0,37.7,30.8,15.7,0000.0,0016.56,0004.72,0002.73
2022-06-10 00:39:00,,0824.2,4.99,0.00,28.9,27.7,00.0,37.7,30.9,16.3,0000.0,0015.32,0004.72,0002.71
2022-06-10 00:40:00,,0824.3,5.01,0.00,29.0,27.7,00.0,37.7,30.9,16.2,0000.0,0014.37,0004.75,0002.69
2022-06-10 00:41:00,,0824.2,5.00,0.00,28.9,27.2,00.0,37.6,30.8,16.0,0000.0,0013.76,0004.76,0002.71
2022-06-10 00:42:00,,0824.3,5.00,0.00,28.9,26.8,00.0,37.6,30.7,15.0,0000.0,0013.64,0004.73,0002.71
2022-06-10 00:43:00,,0824.4,5.00,0.00,28.8,26.8,00.0,37.6,30.6,17.0,0000.0,0013.16,0004.66,0002.70
2022-06-10 00:44:00,,0824.4,5.00,0.00,28.8,26.9,00.0,37.6,30.6,18.0,0000.0,0012.81,0004.61,0002.68
2022-06-10 00:45:00,,0824.4,5.00,0.00,28.8,27.1,00.0,37.6,30.6,18.8,0000.0,0013.57,0004.67,0002.70
2022-06-10 00:46:00,,0824.5,5.00,0.00,28.8,27.3,00.0,37.6,30.7,19.2,0000.0,0014.66,0004.79,0002.75
2022-06-10 00:47:00,,0824.4,5.00,0.00,28.8,27.5,00.0,37.6,30.7,19.6,0000.0,0015.50,0004.83,0002.78
2022-06-10 00:48:00,,0824.4,5.00,0.00,28.9,27.7,00.0,37.6,30.8,19.7,0000.0,0016.72,0004.97,0002.81
2022-06-10 00:49:00,,0824.4,5.00,0.00,28.9,27.9,00.0,37.7,30.9,20.2,0000.0,0018.00,0005.07,0002.86
2022-06-10 00:50:00,,0824.4,5.01,0.00,29.0,28.0,00.0,37.7,31.0,19.7,0000.0,0019.45,0005.18,0002.92
2022-06-10 00:51:00,,0824.6,5.00,0.00,29.0,27.8,00.0,37.7,30.9,19.6,0000.0,0020.58,0005.31,0002.99
2022-06-10 00:52:00,,0824.7,4.99,0.00,28.9,27.0,00.0,37.6,30.7,19.7,0000.0,0021.34,0005.41,0003.01
2022-06-10 00:53:00,,0824.8,5.00,0.00,28.9,26.8,00.0,37.6,30.6,19.6,0000.0,0022.55,0005.47,0003.04
2022-06-10 00:54:00,,0824.6,5.00,0.00,28.8,26.8,00.0,37.6,30.6,19.9,0000.0,0023.60,0005.60,0003.10
2022-06-10 00:55:00,,0824.7,5.00,0.00,28.8,27.0,00.0,37.6,30.6,20.0,0000.0,0024.10,0005.72,0003.15
2022-06-10 00:56:00,,0824.7,5.00,0.00,28.8,27.2,00.0,37.6,30.6,19.9,0000.0,0023.83,0005.83,0003.18
2022-06-10 00:57:00,,0824.8,5.01,0.00,28.8,27.3,00.0,37.6,30.7,20.1,0000.0,0022.97,0005.85,0003.17
2022-06-10 00:58:00,,0824.8,4.98,0.00,28.8,27.5,00.0,37.6,30.8,20.3,0000.0,0022.74,0005.95,0003.17
2022-06-10 00:59:00,,0824.8,5.00,0.00,28.9,27.7,00.0,37.7,30.9,20.9,0000.0,0022.65,0005.94,0003.17
